Simultaneous Nadir Overpasses (SNOs) Predictions

Prediction of SNOs between FY3D and AQUA Satellite Orbit:

Table of predicted SNOs for the next 14.0 days since TLE Epoch: 11/11/2023
Index Date (FY3D) Time (FY3D) Lat,Lon (FY3D) SZA (FY3D ) Date (AQUA) Time (AQUA) Lat,Lon (AQUA) SZA (AQUA ) Distance(km) Time Diff (sec)
1 11/12/2023 12:31:37 -79.12, 152.00 82.83 11/12/2023 12:32:11 -79.12, 152.09 82.85 1.89 34
2 11/12/2023 13:22:13 78.76, -38.13 96.71 11/12/2023 13:21:26 78.76, -38.11 96.72 0.54 47
3 11/15/2023 01:26:22 -79.20, -42.18 82.06 11/15/2023 01:27:18 -79.18, -42.07 82.09 2.70 56
4 11/15/2023 02:16:59 78.87, 127.48 97.53 11/15/2023 02:16:34 78.87, 127.50 97.53 0.44 25
5 11/17/2023 14:23:44 -80.64, 68.64 74.18 11/17/2023 14:24:57 -81.42, 67.17 73.73 90.06 73
6 11/17/2023 15:11:43 78.92, -66.48 98.23 11/17/2023 15:11:39 78.92, -66.52 98.23 0.79 4
7 11/20/2023 04:06:26 78.97, 99.50 98.90 11/20/2023 04:06:42 78.99, 99.37 98.91 3.09 16
8 11/20/2023 04:57:04 -78.73, -91.49 81.42 11/20/2023 04:55:59 -78.72, -91.45 81.41 0.95 65
9 11/22/2023 17:01:12 79.10, -95.07 99.64 11/22/2023 17:01:46 79.10, -95.08 99.63 0.13 34



Historial Predications of SNOs between FY3D and AQUA
